Location: Haliburton Scout Reserve
(45.0900°N, 78.3200°W)
Time: 05:33:14
(UTC-04:00)

YUBILEINY - Visible Passes

Search period start: 16 May 2022 00:00
Search period end: 26 May 2022 00:00
Orbit: 1479 x 1508 km, 82.5° (Epoch: 16 May)

Date Brightness Start Highest point End Pass type
(mag) Time Alt. Az. Time Alt. Az. Time Alt. Az.
16 May ? 00:36:56 21° SW 00:42:40 45° WNW 00:51:02 10° N visible
16 May ? 21:51:26 13° ESE 21:56:57 25° E 22:03:34 10° NNE visible
16 May ? 23:47:18 26° SSW 23:52:47 76° W 00:01:37 10° N visible
17 May ? 01:45:44 10° W 01:51:18 18° NW 01:56:55 10° NNW visible
17 May ? 21:05:05 10° E 21:08:21 13° ENE 21:11:37 10° NE visible
17 May ? 22:57:39 24° SSE 23:03:16 65° E 23:11:55 10° NNE visible
18 May ? 00:53:31 11° SW 01:00:42 31° WNW 01:08:19 10° N visible
18 May ? 22:07:58 16° SE 22:14:04 37° E 22:21:52 10° NNE visible
19 May ? 00:03:50 17° SW 00:10:33 53° WNW 00:19:08 10° N visible
19 May ? 02:07:04 10° WNW 02:09:54 12° NW 02:12:46 10° NNW visible
19 May ? 21:19:18 10° ESE 21:25:13 21° ENE 21:31:10 10° NNE visible
19 May ? 23:14:06 20° S 23:20:47 88° W 23:29:39 10° N visible
20 May ? 01:12:41 10° WSW 01:18:58 21° WNW 01:25:20 10° NNW visible
20 May ? 22:24:20 16° SSE 22:31:22 56° E 22:39:51 10° NNE visible
21 May ? 00:20:39 10° SW 00:28:31 36° WNW 00:36:30 10° N visible
21 May ? 21:34:56 10° SE 21:42:16 32° E 21:49:39 10° NNE visible
21 May ? 23:30:23 12° SSW 23:38:29 62° WNW 23:47:14 10° N visible
22 May ? 01:33:12 10° W 01:37:28 14° NW 01:41:47 10° NNW visible
22 May ? 22:40:31 12° S 22:48:49 80° E 22:57:39 10° N visible
23 May ? 00:39:48 10° WSW 00:46:41 25° WNW 00:53:39 10° N visible
23 May ? 21:51:19 10° SSE 21:59:29 47° E 22:07:45 10° NNE visible
23 May ? 23:48:12 10° SW 23:56:22 43° WNW 00:04:39 10° N visible
24 May ? 22:57:43 10° SSW 23:06:26 72° W 23:15:17 10° N visible
25 May ? 00:59:48 10° W 01:05:05 17° NW 01:10:25 10° NNW visible
25 May ? 22:08:15 10° S 22:16:53 69° E 22:25:36 10° NNE visible
